CAPE
0 0 0 1 1 0 0 0 2 2 1 0 2 2 2 2 0 0 0 0 0 0 0 0 0 0 7 153 4 4 120 129 120 160 201 211 65 61 36 0 66 31 10 29 18
1 0 0 0 0 0 0 2 2 2 2 1 3 2 2 2 0 0 0 0 0 0 0 0 0 0 2 294 31 0 32 78 218 103 108 293 135 75 3 35 54 0 0 26 13
1 1 2 0 0 0 1 0 0 0 0 0 2 1 1 0 0 0 0 0 0 0 0 0 0 0 7 493 344 14 0 38 192 126 111 296 188 60 6 91 54 7 16 40 29
1 1 0 1 2 1 0 0 0 0 0 1 2 1 0 0 0 0 0 0 0 0 0 0 0 0 558 510 202 332 54 39 120 42 132 274 279 60 51 102 43 1 0 30 25
2 2 2 2 0 0 0 2 1 0 0 0 1 1 0 0 0 0 63 8 0 0 0 0 0 0 197 403 274 213 157 72 116 46 191 309 149 197 79 46 2 4 10 4 22
1 1 0 0 0 0 0 0 1 2 2 0 1 1 0 0 0 0 0 0 0 0 0 0 0 5 525 585 358 206 147 62 34 69 218 89 134 242 118 53 29 23 23 5 8
2 1 1 0 0 0 0 0 0 0 2 1 0 0 0 0 0 0 0 0 0 0 0 0 0 2 618 396 230 213 186 193 185 123 198 78 216 203 103 68 62 91 54 20 0
2 0 1 1 2 0 2 2 0 2 0 0 0 0 0 0 0 0 0 0 0 0 0 0 0 339 553 379 239 354 310 248 281 254 191 151 143 171 60 66 63 92 96 85 68
4 0 1 1 0 0 2 0 0 0 0 0 0 0 0 0 0 0 0 0 0 0 0 0 4 358 281 349 322 259 343 291 348 287 208 159 156 375 83 88 105 88 98 91 80
1 3 1 1 2 0 0 0 0 0 0 0 0 0 0 0 0 0 0 0 0 0 0 0 17 225 410 168 81 165 85 168 228 353 248 164 134 189 334 81 92 151 123 164 150
1 2 0 0 0 0 0 0 0 0 0 0 0 0 0 0 0 0 0 0 0 0 0 0 55 184 290 140 107 97 29 0 117 448 318 349 228 65 320 360 271 150 152 153 210
0 0 2 0 0 1 0 0 0 0 0 0 0 0 0 0 0 0 0 0 0 0 0 0 0 0 35 188 138 119 39 0 256 658 454 385 358 282 108 312 317 254 231 113 232
0 0 1 1 0 0 0 0 0 0 0 0 0 0 0 0 0 0 0 0 0 0 0 0 0 0 0 0 0 0 0 0 0 748 596 565 513 579 280 183 221 253 286 232 277
0 0 0 0 0 0 0 0 0 0 0 0 0 0 0 0 0 0 0 0 0 0 0 0 0 0 0 0 0 0 0 0 396 462 295 441 111 172 535 470 266 227 377 207 127
0 0 1 0 0 0 0 0 0 0 0 0 0 0 0 0 0 0 0 0 0 0 0 0 0 0 0 0 0 0 1 99 403 344 447 501 347 222 307 489 577 336 238 424 211
0 0 2 0 0 0 0 0 0 0 0 0 0 0 0 0 0 0 0 0 0 0 0 0 0 0 0 0 0 204 394 377 394 497 224 97 245 13 191 470 376 387 325 277 390
0 0 0 0 0 0 0 0 0 0 0 0 0 0 0 0 0 0 0 0 0 0 0 0 0 0 0 0 24 57 140 37 112 161 9 46 325 102 146 387 465 631 348 305 335
0 0 0 0 0 0 0 0 0 0 0 0 0 0 0 0 0 0 0 0 0 0 0 0 0 0 0 0 1 31 0 0 0 0 0 141 214 86 328 262 231 654 712 377 246
0 0 0 0 0 0 0 0 0 0 0 0 0 0 0 0 0 0 0 0 0 0 0 0 0 0 0 0 0 0 0 0 0 0 0 0 40 231 275 356 465 430 372 459 375
0 0 0 0 0 0 0 0 0 0 0 0 0 0 0 0 0 0 0 0 0 0 0 0 0 0 0 0 0 0 0 0 0 0 0 5 100 170 558 394 274 125 134 215 318
0 0 0 0 0 0 0 0 0 0 0 0 0 0 0 0 0 0 0 0 0 0 0 0 0 0 0 2 0 0 0 0 0 0 0 0 9 300 428 69 51 18 45 50 88
0 0 0 0 0 0 0 0 0 0 0 0 0 0 0 0 0 0 0 0 0 0 0 0 0 4 5 0 0 0 0 2 1 13 6 10 2 36 169 92 62 62 166 715 747
0 0 0 0 0 0 0 0 0 0 0 0 0 0 0 0 0 0 0 0 0 0 0 0 0 10 25 4 0 0 0 0 7 28 155 97 2 25 335 412 293 967 742 702 785
0 0 0 0 0 0 0 0 0 0 0 0 0 0 0 0 0 0 0 0 0 0 0 0 0 0 0 0 0 3 0 0 2 13 16 14 22 37 131 674 774 745 759 658 929
0 0 0 0 0 0 0 0 0 0 0 0 0 0 0 0 0 0 0 0 0 15 0 0 17 0 0 0 0 0 0 0 0 0 0 0 0 0 10 312 810 702 782 637 887
0 0 0 0 0 0 0 0 0 0 0 0 0 0 0 0 0 0 0 0 0 0 0 0 22 15 17 4 7 5 9 9 0 0 0 0 0 12 0 357 751 668 505 764 816
0 0 0 0 0 0 0 0 0 0 0 0 0 0 0 0 0 0 0 0 0 0 0 22 23 46 0 0 10 1 22 21 13 22 28 10 0 19 74 491 737 660 483 597 680
CIN
-0 -0 -0 -0 -0 -0 -0 -0 -0 -0 -0 -0 -0 -0 -0 -0 -0 -0 -0 -0 -0 -0 -0 -0 -0 -0 -11 -160 -61 -100 -36 -23 -44 -20 -25 -73 -71 -66 -107 -0 -54 -63 -55 -107 -113
-0 -0 -0 -0 -0 -0 -0 -0 -0 -0 -0 -0 -0 -0 -0 -0 -0 -0 -0 -0 -0 -0 -0 -0 -0 -0 -5 -121 -89 -0 -49 -38 -35 -59 -37 -37 -46 -48 -81 -61 -76 -0 -0 -145 -138
-0 -0 -0 -0 -0 -0 -0 -0 -0 -0 -0 -0 -0 -0 -0 -0 -0 -0 -0 -0 -0 -0 -0 -0 -0 -0 -6 -83 -67 -9 -0 -30 -5 -45 -63 -32 -33 -43 -57 -22 -41 -77 -133 -142 -137
-0 -0 -0 -0 -0 -0 -0 -0 -0 -0 -0 -0 -0 -0 -0 -0 -0 -0 -0 -0 -0 -0 -0 -0 -0 -0 -45 -52 -88 -21 -55 -38 -22 -37 -58 -9 -49 -37 -35 -31 -50 -18 -0 -147 -151
-0 -0 -0 -0 -0 -0 -0 -0 -0 -0 -0 -0 -0 -0 -0 -0 -0 -0 -514 -363 -0 -0 -0 -0 -0 -0 -62 -63 -70 -47 -33 -25 -30 -52 -39 -18 -31 -25 -48 -91 -16 -48 -125 -43 -131
-0 -0 -0 -0 -0 -0 -0 -0 -0 -0 -0 -0 -0 -0 -0 -0 -0 -0 -0 -0 -0 -0 -0 -0 -0 -55 -74 -66 -64 -59 -43 -46 -48 -44 -28 -49 -20 -40 -49 -75 -80 -106 -110 -47 -110
-0 -0 -0 -0 -0 -0 -0 -0 -0 -0 -0 -0 -0 -0 -0 -0 -0 -0 -0 -0 -0 -0 -0 -0 -0 -7 -66 -77 -94 -59 -35 -18 -19 -38 -25 -95 -30 -23 -76 -66 -58 -76 -93 -115 -0
-0 -0 -0 -0 -0 -0 -0 -0 -0 -0 -0 -0 -0 -0 -0 -0 -0 -0 -0 -0 -0 -0 -0 -0 -0 -120 -89 -92 -72 -34 -28 -7 -29 -20 -37 -49 -18 -77 -144 -82 -51 -59 -79 -82 -86
-0 -0 -0 -0 -0 -0 -0 -0 -0 -0 -0 -0 -0 -0 -0 -0 -0 -0 -0 -0 -0 -0 -0 -0 -37 -102 -102 -68 -44 -63 -13 -23 -32 -51 -42 -46 -39 -45 -125 -78 -55 -44 -46 -57 -61
-0 -0 -0 -0 -0 -0 -0 -0 -0 -0 -0 -0 -0 -0 -0 -0 -0 -0 -0 -0 -0 -0 -0 -0 -60 -51 -68 -45 -5 -22 -29 -43 -23 -53 -69 -55 -55 -76 -49 -114 -103 -46 -56 -40 -37
-0 -0 -0 -0 -0 -0 -0 -0 -0 -0 -0 -0 -0 -0 -0 -0 -0 -0 -0 -0 -0 -0 -0 -0 -6 -4 -12 -60 -46 -48 -52 -0 -49 -49 -42 -30 -25 -67 -46 -50 -37 -91 -73 -70 -30
-0 -0 -0 -0 -0 -0 -0 -0 -0 -0 -0 -0 -0 -0 -0 -0 -0 -0 -0 -0 -0 -0 -0 -0 -0 -0 -54 -66 -56 -44 -47 -0 -63 -50 -39 -39 -42 -65 -120 -80 -72 -77 -69 -122 -31
-0 -0 -0 -0 -0 -0 -0 -0 -0 -0 -0 -0 -0 -0 -0 -0 -0 -0 -0 -0 -0 -0 -0 -0 -0 -0 -0 -0 -0 -0 -0 -0 -0 -48 -46 -36 -50 -70 -135 -152 -112 -94 -62 -61 -71
-0 -0 -0 -0 -0 -0 -0 -0 -0 -0 -0 -0 -0 -0 -0 -0 -0 -0 -0 -0 -0 -0 -0 -0 -0 -0 -0 -0 -0 -0 -0 -0 -69 -32 -6 -57 -6 -67 -93 -127 -149 -123 -86 -68 -105
-0 -0 -0 -0 -0 -0 -0 -0 -0 -0 -0 -0 -0 -0 -0 -0 -0 -0 -0 -0 -0 -0 -0 -0 -0 -0 -0 -0 -0 -0 -7 -72 -63 -32 -26 -38 -16 -13 -144 -93 -97 -138 -123 -70 -49
-0 -0 -0 -0 -0 -0 -0 -0 -0 -0 -0 -0 -0 -0 -0 -0 -0 -0 -0 -0 -0 -0 -0 -0 -0 -0 -0 -0 -0 -118 -84 -92 -96 -51 -13 -51 -16 -6 -33 -58 -105 -128 -148 -137 -83
-0 -0 -0 -0 -0 -0 -0 -0 -0 -0 -0 -0 -0 -0 -0 -0 -0 -0 -0 -0 -0 -0 -0 -0 -0 -0 -0 -0 -125 -117 -53 -2 -1 -27 -4 -119 -34 -18 -69 -127 -132 -115 -180 -166 -127
-0 -0 -0 -0 -0 -0 -0 -0 -0 -0 -0 -0 -0 -0 -0 -0 -0 -0 -0 -0 -0 -0 -0 -0 -0 -0 -0 -0 -1 -40 -0 -0 -0 -0 -0 -136 -8 -25 -134 -202 -213 -171 -134 -173 -157
-0 -0 -0 -0 -0 -0 -0 -0 -0 -0 -0 -0 -0 -0 -0 -0 -0 -0 -0 -0 -0 -0 -0 -0 -0 -0 -0 -0 -0 -0 -0 -0 -0 -0 -0 -0 -89 -73 -135 -146 -158 -163 -177 -134 -127
-0 -0 -0 -0 -0 -0 -0 -0 -0 -0 -0 -0 -0 -0 -0 -0 -0 -0 -0 -0 -0 -0 -0 -0 -0 -0 -0 -0 -0 -0 -0 -0 -0 -0 -0 -9 -34 -2 -64 -82 -145 -176 -181 -177 -187
-0 -0 -0 -0 -0 -0 -0 -0 -0 -0 -0 -0 -0 -0 -0 -0 -0 -0 -0 -0 -0 -0 -0 -0 -0 -0 -2 -34 -0 -0 -0 -0 -0 -0 -0 -0 -2 -94 -65 -130 -165 -199 -237 -260 -233
-0 -0 -0 -0 -0 -0 -0 -0 -0 -0 -0 -0 -0 -0 -0 -0 -0 -0 -0 -0 -0 -0 -0 -0 -0 -33 -75 -0 -0 -0 -0 -27 -4 -29 -67 -43 -1 -215 -193 -237 -256 -236 -216 -131 -153
-0 -0 -0 -0 -0 -0 -0 -0 -0 -0 -0 -0 -0 -0 -0 -0 -0 -0 -0 -0 -0 -0 -0 -0 -0 -14 -30 -5 -0 -20 -0 -17 -165 -116 -44 -11 -2 -281 -185 -166 -200 -103 -118 -129 -131
-0 -0 -0 -0 -0 -0 -0 -0 -0 -0 -0 -0 -0 -0 -0 -0 -0 -0 -0 -0 -0 -0 -0 -0 -0 -2 -0 -0 -0 -47 -0 -0 -30 -15 -27 -23 -29 -83 -116 -101 -104 -107 -111 -127 -92
-0 -0 -0 -0 -0 -0 -0 -0 -0 -0 -0 -0 -0 -0 -0 -0 -0 -0 -0 -0 -0 -262 -0 -0 -14 -0 -0 -0 -0 -1 -0 -0 -0 -0 -0 -0 -0 -0 -125 -120 -70 -99 -91 -116 -85
-0 -0 -0 -0 -0 -0 -0 -0 -0 -0 -0 -0 -0 -0 -0 -0 -0 -0 -0 -0 -0 -0 -0 -0 -66 -89 -48 -130 -117 -53 -62 -56 -1 -0 -0 -0 -0 -113 -0 -154 -88 -80 -102 -77 -76
-0 -0 -0 -0 -0 -0 -0 -0 -0 -0 -0 -0 -0 -0 -0 -0 -0 -0 -0 -0 -0 -0 -0 -68 -83 -45 -0 -0 -91 -3 -16 -15 -25 -49 -41 -21 -0 -130 -150 -92 -57 -70 -109 -86 -65
Wind_Speed
12 11 11 11 11 10 10 10 10 9 10 11 11 12 12 13 14 3 5 1 4 8 5 6 3 3 2 4 3 1 2 4 4 3 4 6 2 3 4 9 2 3 3 9 14
13 12 12 12 12 12 11 11 11 10 10 11 11 11 11 12 3 6 4 6 7 9 5 7 5 4 3 2 2 2 2 2 3 6 4 5 1 5 5 4 4 7 11 14 13
13 13 13 13 12 12 12 12 12 11 11 11 10 10 10 8 3 1 3 9 8 6 2 3 6 2 2 1 3 2 3 6 5 6 5 3 3 2 9 2 2 9 13 13 11
14 13 13 13 13 13 13 13 13 12 12 10 10 10 10 2 4 3 5 11 9 5 4 5 4 3 2 2 2 2 5 3 8 3 4 3 3 3 5 2 6 12 12 12 11
14 14 14 13 14 14 13 13 13 12 12 10 9 8 3 2 2 4 9 11 7 5 5 5 4 3 3 4 4 5 4 5 11 8 1 3 2 4 5 7 13 13 11 10 9
15 15 15 15 14 14 14 14 13 12 11 8 8 8 3 3 2 4 9 7 4 4 4 4 1 5 8 4 5 4 7 11 6 4 4 4 3 2 7 11 12 12 10 8 8
17 16 16 16 15 15 15 15 15 13 9 6 6 3 2 3 2 6 5 3 3 2 3 2 1 1 5 9 9 11 11 7 4 4 2 7 8 4 10 10 11 11 9 8 8
18 18 17 16 15 16 16 16 14 10 6 4 3 2 3 2 5 5 3 2 2 2 1 1 4 8 3 11 3 4 3 4 3 7 4 2 2 7 5 10 10 11 9 9 9
17 19 18 16 16 16 16 17 11 4 3 5 2 3 1 3 3 3 4 1 5 3 2 1 2 5 6 6 4 3 3 1 4 8 4 4 1 7 11 10 10 11 10 8 9
17 18 18 16 14 14 16 11 8 6 2 3 3 3 1 1 2 5 3 3 2 5 4 2 3 4 4 5 2 3 2 2 3 8 6 6 7 6 10 8 8 11 11 11 11
18 17 19 17 15 13 7 2 2 3 2 3 1 2 2 2 2 3 3 5 2 3 3 3 4 6 10 5 5 5 2 1 2 5 8 10 9 10 11 10 13 12 12 12 13
19 18 18 18 16 8 3 1 4 3 5 3 5 5 5 2 3 3 5 2 1 4 2 4 4 3 4 7 5 6 6 3 1 5 9 5 14 15 11 13 14 15 14 13 13
19 19 17 19 14 3 2 1 4 1 3 3 4 3 3 7 4 7 7 3 3 4 3 4 1 2 4 5 8 9 9 5 1 6 5 2 7 9 7 10 9 12 15 13 15
20 19 17 21 2 2 2 2 5 4 1 2 3 3 5 3 4 2 5 3 2 6 4 3 1 3 3 7 9 12 5 7 12 7 0 3 4 2 7 8 13 14 15 16 13
21 19 14 8 4 3 4 5 5 4 2 3 4 5 3 4 6 3 1 3 5 6 5 3 7 6 7 10 9 3 3 9 11 4 3 4 3 2 2 9 15 16 17 17 19
24 20 14 2 2 4 5 1 3 3 3 3 5 5 6 1 3 4 3 2 2 4 3 5 0 4 4 3 8 13 12 8 4 1 4 2 4 4 3 2 1 7 17 18 17
25 21 4 2 0 5 5 2 3 3 2 4 3 4 4 4 5 5 8 9 5 4 6 2 4 2 3 6 7 5 6 2 5 5 4 1 5 7 3 5 4 5 6 16 16
28 14 5 4 3 6 2 2 5 1 4 1 0 4 5 9 4 6 6 6 4 4 2 4 7 3 3 6 5 9 6 4 7 7 6 3 5 2 1 3 5 4 5 5 14
23 2 2 2 5 3 2 3 4 5 1 1 0 4 4 5 3 6 8 5 7 14 6 5 3 2 3 1 2 7 6 2 4 1 4 2 4 9 7 8 5 4 4 6 11
7 4 4 6 4 2 3 4 4 3 3 1 4 5 5 5 8 9 8 4 4 10 3 3 3 2 3 1 8 3 8 4 2 6 8 5 4 4 6 8 6 5 6 3 4
2 3 5 3 2 1 4 5 5 5 4 3 3 3 3 4 7 5 6 2 5 6 3 5 3 4 4 4 1 4 4 5 3 2 6 7 4 3 4 2 3 4 3 6 6
4 2 3 2 1 1 3 4 2 3 3 5 3 4 4 6 6 6 9 4 7 11 9 1 3 1 2 3 1 1 1 3 5 5 1 4 3 1 2 3 2 5 4 4 8
4 3 2 3 2 2 2 3 4 2 2 2 3 5 3 5 4 5 5 1 8 8 9 8 1 4 3 5 3 3 3 2 3 1 6 4 3 1 2 4 3 4 4 5 6
3 3 2 3 1 2 3 1 3 3 4 4 4 1 3 4 2 6 7 2 4 3 7 6 4 4 5 1 2 4 4 3 3 4 2 8 9 4 4 5 4 4 5 5 3
2 2 2 3 2 3 2 2 5 5 2 3 2 5 4 3 3 3 3 5 3 9 4 4 5 5 3 1 3 2 4 6 7 4 7 9 8 11 6 7 6 6 6 5 3
4 3 1 2 4 3 1 2 2 3 3 3 0 7 7 4 6 8 8 5 6 5 3 1 5 4 4 2 1 5 6 7 9 8 12 15 17 7 7 6 6 5 4 5 2
1 0 3 1 2 3 0 1 2 6 5 8 6 8 8 6 12 12 3 3 4 9 6 5 7 6 5 2 2 8 13 13 9 9 8 11 10 2 6 8 6 4 3 4 3
Wind_Direction
0 357 352 347 342 339 337 334 332 330 327 324 321 321 322 326 312 206 235 155 183 158 137 133 142 122 73 81 74 135 99 145 146 74 81 22 115 91 64 128 89 32 99 120 132
357 354 349 343 340 336 333 329 328 328 327 324 319 317 322 332 300 260 232 163 130 153 129 169 149 138 71 69 66 42 63 69 19 102 8 5 165 145 127 135 84 99 101 125 139
354 350 344 340 337 332 328 324 322 325 327 321 316 314 318 320 255 228 121 171 174 178 140 190 135 147 101 63 32 62 69 130 117 74 4 339 140 191 131 269 150 153 143 143 147
355 348 340 336 333 329 324 321 321 322 324 320 314 314 314 250 149 64 102 151 155 158 145 147 155 161 115 85 74 55 74 112 129 28 8 27 340 121 125 40 120 135 152 151 154
348 343 337 333 329 325 323 320 318 319 320 317 311 317 272 208 272 21 124 135 131 156 185 177 169 174 100 105 100 78 117 76 120 148 289 306 94 38 138 113 121 132 153 163 158
348 342 337 332 329 324 321 316 312 311 313 312 306 315 251 143 55 113 122 133 158 178 174 198 107 103 107 71 52 112 119 111 128 116 21 52 279 287 144 138 136 146 159 172 173
346 341 337 333 330 325 320 315 309 303 298 298 303 300 258 85 77 134 132 153 176 171 167 213 103 207 116 108 124 122 111 117 116 104 120 147 262 165 144 157 155 161 170 179 194
344 342 337 334 329 324 321 316 305 287 269 241 261 259 255 102 120 155 182 125 130 225 306 30 92 94 67 122 102 109 127 163 130 175 147 186 183 142 166 158 174 173 184 197 198
332 341 338 334 329 326 322 318 305 212 182 175 210 305 109 132 228 177 187 147 132 178 299 107 68 81 137 137 111 29 95 131 157 196 148 212 59 155 178 190 185 185 201 201 210
333 341 340 335 330 328 322 318 110 130 160 203 247 210 228 25 155 130 187 154 101 130 142 130 99 115 144 210 93 135 146 207 243 191 210 202 246 173 187 186 196 204 204 212 212
334 336 342 337 329 324 317 199 216 163 182 254 335 293 304 347 204 129 161 148 125 90 156 47 205 194 202 183 101 119 142 265 246 175 199 228 252 229 199 216 207 204 209 222 221
333 331 336 336 328 320 204 229 100 46 307 230 246 271 269 273 139 106 165 142 72 129 143 162 236 237 131 189 234 264 286 281 83 168 209 240 251 246 222 222 216 205 209 213 218
332 330 331 333 327 197 282 176 106 32 265 293 201 207 191 178 178 179 175 120 120 141 185 212 53 94 198 215 233 247 252 194 290 154 207 284 263 236 222 222 229 211 223 221 216
331 331 333 331 249 317 225 102 320 198 340 153 215 163 138 190 166 171 173 142 151 193 167 251 152 224 235 243 221 272 269 189 147 169 111 234 320 268 222 240 222 220 207 218 221
328 331 332 333 316 227 108 326 138 199 135 135 145 124 142 203 138 140 171 139 173 164 193 183 178 185 221 238 188 310 156 156 158 145 187 172 254 160 215 236 238 221 216 212 217
325 328 327 153 218 268 315 311 228 247 157 160 137 168 156 123 113 120 162 73 69 182 236 265 228 215 232 85 170 133 108 100 90 118 237 100 258 275 196 234 222 231 224 213 216
325 324 282 217 349 334 306 167 251 222 17 174 183 175 186 158 174 173 177 191 211 203 223 210 212 228 204 120 139 188 186 199 218 209 284 91 201 265 235 222 253 267 233 221 212
326 323 187 243 310 336 220 133 239 207 217 355 171 143 206 169 187 167 168 205 196 177 267 229 185 186 154 231 203 200 244 239 260 235 260 140 225 232 166 219 261 257 245 211 219
319 333 260 288 245 275 166 188 250 208 183 295 63 197 189 192 185 178 205 216 206 191 217 180 133 59 2 121 229 154 205 21 154 97 249 170 260 260 231 238 211 240 228 265 247
324 321 355 343 174 238 167 235 254 236 296 171 218 214 203 179 184 195 182 179 213 189 220 172 192 74 119 174 67 247 126 174 178 229 246 203 261 253 219 217 208 237 249 287 283
316 342 8 60 253 66 205 227 264 249 246 235 214 206 224 187 201 189 183 189 191 144 153 160 258 123 194 37 28 153 180 69 111 282 269 254 237 231 242 193 233 251 253 301 289
338 320 19 283 147 4 202 210 268 268 217 264 261 233 219 174 175 204 202 247 149 148 171 101 103 76 77 117 63 296 27 239 250 184 247 308 251 35 270 283 264 277 291 309 297
350 295 325 288 214 212 282 267 266 271 269 278 257 222 183 194 192 202 203 166 161 165 159 173 91 152 178 174 163 234 116 109 114 195 199 228 234 49 295 259 247 276 310 333 319
315 335 356 53 47 14 3 300 282 290 265 271 277 309 226 190 230 186 173 128 169 107 85 120 135 214 260 88 98 185 185 176 251 252 214 251 284 258 264 276 268 282 301 321 310
342 66 45 360 77 359 292 320 294 304 300 278 155 40 300 178 167 228 166 146 110 151 103 208 163 192 193 166 198 224 201 196 228 242 248 290 250 279 284 264 273 296 290 305 316
336 341 31 301 297 281 188 187 262 328 288 305 327 354 329 244 191 213 186 208 174 181 134 116 144 172 187 167 197 262 255 247 249 249 252 262 272 299 265 250 261 284 297 322 323
41 267 289 27 316 278 247 334 123 0 263 275 322 341 310 322 298 278 242 88 205 168 151 158 147 181 233 179 234 256 248 232 233 229 241 252 282 207 226 240 252 269 269 301 341